Auburn, AL

11:36 AM CDT on March 28, 2017 (GMT -0500)
Auburn-opelika-pitts

Weather History for KAUO - January, 2012

Change the Weather History Date:

Tuesday, January 10, 2012

  Actual Average Record
Temperature  
Mean Temperature 57 °F -  
Max Temperature 59 °F - 76 °F (1974)
Min Temperature 54 °F - 5 °F (1970)
Degree Days  
Heating Degree Days 8    
Month to date heating degree days 109  
Since 1 July heating degree days 837  
Growing Degree Days 5 (Base 50)    
Moisture  
Dew Point 55 °F    
Average Humidity 96    
Maximum Humidity 100    
Minimum Humidity 88    
Precipitation  
Precipitation 0.00 in - 2.10 in (2000)
Month to date precipitation 0.79  
Year to date precipitation 0.79  
Sea Level Pressure  
Sea Level Pressure 30.03 in    
Wind  
Wind Speed 5 mph (ESE)    
Max Wind Speed 12 mph    
Max Gust Speed 18 mph    
Visibility 8 miles    
Events      
T = Trace of Precipitation, MM = Missing Value Source: NWS Daily Summary

Daily Weather History Graph

Daily Weather History Graph

Search for Another Location

Airport or City:

Trip Planner

Search our weather history database for the weather conditions in past years. The results will help you decide how hot, cold, wet, or windy it might be!

Date:

Astronomy

Jan. 10, 2012 Rise Set
Actual Time 6:44 AM CST 4:53 PM CST
Civil Twilight 6:17 AM CST 5:20 PM CST
Nautical Twilight 5:47 AM CST 5:51 PM CST
Astronomical Twilight 5:17 AM CST 6:20 PM CST
Moon 6:37 PM CST (1/10) 7:28 AM CST (1/10)
Length of Visible Light 11h 03m
Length of Day
10h 09m
Full, 98% of the Moon is Illuminated
Jan 10
Full
Jan 16
Last Quarter
Jan 23
New
Jan 30
First Quarter
Feb 7
Full

Hourly Weather History & Observations

Time (CST) Temp. Dew Point Humidity Pressure Visibility Wind Dir Wind Speed Gust Speed Precip Events Conditions
12:15 AM 55.4 °F 53.6 °F 94% 30.11 in 10.0 mi East 3.5 mph - N/A   Mostly Cloudy
12:35 AM 53.6 °F 53.6 °F 100% 30.10 in 10.0 mi East 3.5 mph - N/A   Partly Cloudy
12:55 AM 53.6 °F 51.8 °F 94% 30.09 in 10.0 mi Calm Calm - N/A   Partly Cloudy
1:15 AM 53.6 °F 53.6 °F 100% 30.10 in 10.0 mi Calm Calm - N/A   Clear
1:35 AM 53.6 °F 53.6 °F 100% 30.09 in 10.0 mi SE 3.5 mph - N/A   Clear
1:55 AM 53.6 °F 51.8 °F 94% 30.08 in 10.0 mi SE 4.6 mph - N/A   Clear
2:15 AM 53.6 °F 51.8 °F 94% 30.09 in 10.0 mi Calm Calm - N/A   Clear
2:35 AM 53.6 °F 53.6 °F 100% 30.09 in 10.0 mi SE 3.5 mph - N/A   Clear
2:55 AM 53.6 °F 51.8 °F 94% 30.09 in 10.0 mi Calm Calm - N/A   Clear
3:15 AM 53.6 °F 53.6 °F 100% 30.09 in 10.0 mi SE 4.6 mph - N/A   Clear
3:35 AM 53.6 °F 51.8 °F 94% 30.08 in 10.0 mi SE 4.6 mph - N/A   Mostly Cloudy
3:55 AM 55.4 °F 53.6 °F 94% 30.08 in 10.0 mi SSE 3.5 mph - N/A   Overcast
4:15 AM 55.4 °F 53.6 °F 94% 30.07 in 10.0 mi Calm Calm - N/A   Overcast
4:35 AM 55.4 °F 53.6 °F 94% 30.06 in 10.0 mi ESE 4.6 mph - N/A   Overcast
4:55 AM 55.4 °F 53.6 °F 94% 30.06 in 10.0 mi Calm Calm - N/A   Overcast
5:15 AM 55.4 °F 53.6 °F 94% 30.06 in 10.0 mi Calm Calm - N/A   Overcast
5:35 AM 55.4 °F 53.6 °F 94% 30.06 in 10.0 mi SSE 5.8 mph - N/A   Mostly Cloudy
5:56 AM 55.4 °F 53.6 °F 94% 30.07 in 10.0 mi SSE 3.5 mph - N/A   Mostly Cloudy
6:15 AM 55.4 °F 53.6 °F 94% 30.05 in 10.0 mi ESE 4.6 mph - N/A   Overcast
6:35 AM 55.4 °F 53.6 °F 94% 30.06 in 10.0 mi SE 5.8 mph - N/A   Overcast
6:55 AM 55.4 °F 53.6 °F 94% 30.06 in 10.0 mi SSE 3.5 mph - N/A   Overcast
7:15 AM 55.4 °F 53.6 °F 94% 30.06 in 10.0 mi SE 4.6 mph - N/A   Overcast
7:35 AM 55.4 °F 53.6 °F 94% 30.07 in 10.0 mi SSE 4.6 mph - N/A   Overcast
7:55 AM 55.4 °F 53.6 °F 94% 30.08 in 8.0 mi SSE 4.6 mph - N/A   Overcast
8:15 AM 55.4 °F 55.4 °F 100% 30.07 in 8.0 mi SE 5.8 mph - N/A   Mostly Cloudy
8:35 AM 55.4 °F 53.6 °F 94% 30.07 in 9.0 mi SE 4.6 mph - N/A   Overcast
8:55 AM 55.4 °F 53.6 °F 94% 30.08 in 9.0 mi SSE 3.5 mph - N/A   Overcast
9:15 AM 55.4 °F 53.6 °F 94% 30.09 in 9.0 mi SE 3.5 mph - N/A   Overcast
9:35 AM 57.2 °F 55.4 °F 94% 30.08 in 9.0 mi SE 3.5 mph - N/A   Overcast
9:55 AM 57.2 °F 55.4 °F 94% 30.07 in 10.0 mi Calm Calm - N/A   Overcast
10:15 AM 57.2 °F 53.6 °F 88% 30.08 in 10.0 mi Calm Calm - N/A   Overcast
10:35 AM 57.2 °F 55.4 °F 94% 30.06 in 9.0 mi East 4.6 mph - N/A   Overcast
10:55 AM 57.2 °F 55.4 °F 94% 30.06 in 10.0 mi ESE 3.5 mph - N/A   Overcast
11:15 AM 57.2 °F 55.4 °F 94% 30.05 in 9.0 mi Calm Calm - N/A   Overcast
11:35 AM 57.2 °F 57.2 °F 100% 30.03 in 8.0 mi Calm Calm - N/A   Overcast
11:55 AM 57.2 °F 57.2 °F 100% 30.02 in 5.0 mi NE 5.8 mph - N/A   Overcast
12:15 PM 57.2 °F 57.2 °F 100% 30.02 in 3.0 mi NE 4.6 mph - N/A   Overcast
12:35 PM 57.2 °F 57.2 °F 100% 30.01 in 2.5 mi East 5.8 mph - N/A   Overcast
12:55 PM 57.2 °F 55.4 °F 94% 29.99 in 3.0 mi ENE 6.9 mph - N/A   Overcast
1:15 PM 57.2 °F 55.4 °F 94% 29.98 in 1.8 mi East 5.8 mph - N/A   Mostly Cloudy
1:35 PM 57.2 °F 55.4 °F 94% 29.97 in 5.0 mi East 11.5 mph - N/A   Mostly Cloudy
1:55 PM 57.2 °F 55.4 °F 94% 29.96 in 4.0 mi ENE 8.1 mph - N/A   Overcast
2:15 PM 57.2 °F 55.4 °F 94% 29.96 in 2.5 mi East 9.2 mph - N/A   Overcast
2:35 PM 57.2 °F 55.4 °F 94% 29.95 in 2.5 mi East 8.1 mph - N/A   Overcast
2:55 PM 57.2 °F 55.4 °F 94% 29.95 in 2.5 mi East 6.9 mph - N/A   Overcast
3:15 PM 57.2 °F 55.4 °F 94% 29.94 in 2.0 mi East 10.4 mph - N/A   Overcast
3:35 PM 57.2 °F 57.2 °F 100% 29.94 in 6.0 mi East 8.1 mph - N/A   Overcast
3:55 PM 57.2 °F 57.2 °F 100% 29.94 in 9.0 mi ESE 6.9 mph - N/A   Overcast
4:15 PM 57.2 °F 57.2 °F 100% 29.95 in 10.0 mi SE 9.2 mph - N/A   Overcast
4:35 PM 57.2 °F 57.2 °F 100% 29.93 in 10.0 mi SE 9.2 mph - N/A   Overcast
4:55 PM 57.2 °F 57.2 °F 100% 29.93 in 10.0 mi SE 5.8 mph - N/A   Overcast
5:15 PM 57.2 °F 57.2 °F 100% 29.94 in 9.0 mi ESE 6.9 mph - N/A   Overcast
5:35 PM 57.2 °F 57.2 °F 100% 29.92 in 7.0 mi ESE 6.9 mph - N/A   Overcast
5:55 PM 57.2 °F 57.2 °F 100% 29.91 in 7.0 mi ESE 8.1 mph - N/A   Overcast
6:15 PM 57.2 °F 57.2 °F 100% 29.91 in 7.0 mi SE 9.2 mph - N/A   Overcast
6:35 PM 57.2 °F 55.4 °F 94% 29.90 in 7.0 mi ESE 10.4 mph 16.1 mph N/A   Overcast
6:55 PM 57.2 °F 57.2 °F 100% 29.89 in 8.0 mi SE 11.5 mph 18.4 mph N/A   Overcast
7:15 PM 57.2 °F 57.2 °F 100% 29.89 in 9.0 mi ESE 9.2 mph - N/A   Overcast
7:35 PM 57.2 °F 57.2 °F 100% 29.90 in 9.0 mi SE 8.1 mph - N/A   Overcast
7:55 PM 57.2 °F 57.2 °F 100% 29.89 in 10.0 mi ESE 6.9 mph - N/A   Overcast
8:15 PM 59.0 °F 57.2 °F 94% 29.90 in 10.0 mi SE 6.9 mph 19.6 mph N/A   Overcast
8:35 PM 59.0 °F 57.2 °F 94% 29.90 in 10.0 mi ESE 12.7 mph 19.6 mph N/A   Overcast
8:55 PM 59.0 °F 57.2 °F 94% 29.90 in 10.0 mi SE 9.2 mph - N/A   Overcast
9:15 PM 57.2 °F 57.2 °F 100% 29.88 in 10.0 mi ESE 6.9 mph - N/A   Mostly Cloudy
9:35 PM 57.2 °F 57.2 °F 100% 29.87 in 10.0 mi SE 9.2 mph - N/A   Mostly Cloudy
9:55 PM 57.2 °F 57.2 °F 100% 29.87 in 10.0 mi SE 9.2 mph 18.4 mph N/A   Overcast
10:15 PM 57.2 °F 57.2 °F 100% 29.85 in 5.0 mi SE 9.2 mph - N/A   Overcast
10:35 PM 57.2 °F 55.4 °F 94% 29.85 in 5.0 mi SE 9.2 mph - N/A   Overcast
10:55 PM 59.0 °F 57.2 °F 94% 29.84 in 8.0 mi SE 11.5 mph 16.1 mph N/A   Overcast
11:15 PM 59.0 °F 57.2 °F 94% 29.82 in 9.0 mi ESE 6.9 mph - N/A   Overcast
11:35 PM - - N/A% 29.81 in 7.0 mi ESE 8.1 mph - N/A   Overcast
11:55 PM - - N/A% 29.79 in 8.0 mi ESE 9.2 mph - N/A   Overcast